Regional Weather Roundup
Issued by NWS

Home | Current Version | Previous Version | Graphics & Text | Print | Product List | Glossary On
Versions: 1 2 3 4 5 6 7 8 9 10 11 12 13 14 15 16 17 18 19 20 21 22 23 24 25 26 27 28 29 30 31 32 33 34 35 36 37 38 39 40 41 42 43 44 45 46 47
000
ASUS45 KSLC 260710
RWRUT

UTAH REGIONAL WEATHER ROUNDUP
NATIONAL WEATHER SERVICE SALT LAKE CITY UT
100 AM MDT SAT JUL 26 2014

UTZ001>011-023>025-260800-

NORTHERN UTAH

CITY           SKY/WX    TMP DP  RH WIND       PRES   REMARKS
HILL AFB       PTCLDY    76  35  22 E9        30.06R
LOGAN          CLEAR     64  42  44 CALM      30.08R
OGDEN          MOCLDY    76  39  26 SW7       30.03R
PROVO AIRPORT  PTCLDY    72  54  53 CALM      30.07R
SALT LAKE CITY PTCLDY    77  42  28 SE7       30.01R
VERNAL         CLOUDY    78  46  32 W6        30.11R
WENDOVER       CLEAR     77  30  18 W5        30.05S
HEBER CITY     MOCLDY    64  45  48 CALM      30.15R
WEST JORDAN    CLEAR     79  52  38 S8        30.05S

$$

UTZ012>022-026-027-260800-

SOUTHERN UTAH

CITY           SKY/WX    TMP DP  RH WIND       PRES   REMARKS
BRYCE CANYON   PTCLDY    55  45  68 CALM      30.36R
CEDAR CITY     MOCLDY    75  47  36 SW8       30.17R
MILFORD        PTCLDY    79  48  33 S13       30.09R
MOAB/CYNLANDS  MOCLDY    80  47  31 SE7       30.05R
PRICE          CLOUDY    71  46  40 CALM      30.18F
ST GEORGE      PTSUNNY   88  52  29 SE8       29.99R
KANAB            N/A     68  50  52 NE3       30.20

$$

REGIONAL REPORTS     COLORADO/ARIZONA

CITY           SKY/WX    TMP DP  RH WIND       PRES   REMARKS
CRAIG, CO      MOCLDY    60  49  66 NE5       30.22R
GRAND JUNCTION PTCLDY    70  54  56 E12       30.10R
RIFLE          PTCLDY    67  48  50 SE9       30.19R
MONTROSE       CLEAR     71  51  49 SE3       30.21R
CORTEZ         PTCLDY    66  48  52 NE5       30.21R
PAGE, AZ       MOCLDY    84  51  31 SW5       30.10R
GRAND CANYON   CLOUDY    65  48  54 S3        30.35R
KINGMAN        LGT RAIN  75  60  59 SE25      30.09F
FLAGSTAFF      CLOUDY    64  51  62 SW6       30.38R

$$

REGIONAL REPORTS    NEVADA/IDAHO/WYOMING

CITY           SKY/WX    TMP DP  RH WIND       PRES   REMARKS
LAS VEGAS, NV  MOCLDY    95  49  20 S13       29.86R HX  92
ELY            MOCLDY    68  36  30 S7        30.18S
ELKO           CLEAR     70  24  17 N10       30.12R
POCATELLO, ID  CLEAR     68  30  24 SW14      30.10R
BURLEY         CLEAR     58  36  43 SW7       30.09R
EVANSTON, WY   PTCLDY    66  31  27 NW3       30.26R
ROCK SPRINGS   PTCLDY    67  23  19 NW8       30.22F

$$



USA.gov is the U.S. government's official web portal to all federal, state and local government web resources and services.